Location: Peterborough
(44.3091°N, 78.3197°W)
Time: 18:07:01
(UTC-04:00)

Explorer 11/Cluster Stage 4 - Pass Details

Date: 24 March 2023
Orbit: 466 x 1237 km, 28.8° (Epoch: 05 June)

Event Time Altitude Azimuth Distance (km) Brightness Sun altitude
Rises 11:19:12 0° 244° (WSW) 3,327 9.7 39.6°
Reaches altitude 10° 11:22:18 10° 226° (SW) 2,543 9.4 39.9°
Maximum altitude 11:26:28 19° 184° (S) 2,162 9.7 40.4°
Drops below altitude 10° 11:31:07 10° 143° (SE) 2,908 10.7 40.9°
Sets 11:34:59 0° 127° (SE) 3,988 11.0 41.3°
